Location: Beekmeers
(50.8953°N, 3.6968°E)
Time: 21:08:05
(UTC+00:00)

Cosmos 407 Rocket - Pass Details

Date: 23 May 2024
Orbit: 742 x 783 km, 74.0° (Epoch: 16 June)

Event Time Altitude Azimuth Distance (km) Brightness Sun altitude
Exits shadow 00:44:27 24° 229° (SW) 1,571 4.6 -17.2°
Maximum altitude 00:47:32 57° 299° (WNW) 913 3.9 -17.0°
Drops below altitude 10° 00:52:43 10° 18° (NNE) 2,315 7.3 -16.8°
Sets 00:55:09 0° 23° (NNE) 3,238 8.5 -16.7°
